Location: Batang Balui
(2.7000°N, 113.7833°E)
Time: 04:52:00
(UTC+00:00)

Tiangong - Visible Passes

Search period start: 09 December 2023 00:00
Search period end: 19 December 2023 00:00
Orbit: 372 x 383 km, 41.5° (Epoch: 08 December)

Date Brightness Start Highest point End Pass type
(mag) Time Alt. Az. Time Alt. Az. Time Alt. Az.
09 Dec 0.9 10:59:35 10° W 11:01:55 19° SW 11:04:15 10° S visible
10 Dec -0.3 21:27:21 10° SSW 21:30:11 33° SE 21:33:01 10° ENE visible
11 Dec 1.1 20:26:58 10° SSE 20:28:19 12° SE 20:29:40 10° ESE visible
12 Dec -2.4 21:02:38 69° SW 21:02:58 87° NW 21:06:03 10° NE visible
13 Dec 0.0 21:38:09 11° NNW 21:38:09 11° NNW 21:38:52 10° NNW visible
